Portada
METAR-TAF:

METAR-TAF

Aeroports :

Albertus Airport

Freeport, Illinois, Estats Units d'Amèrica

latitud: 42-14-47N, longitud: 089-34-56W, altitud: 262 m

Observació

L'informe es va fer fa 24 minuts, a les 03:55 UTC
Vent calma
Temperatura 20°C
Humitat 100%
Pressió 1017 hPa
Visibilitat: 8.0 km
Cel clar
boirina

METAR: KFEP 180355Z AUTO 00000KT 5SM BR CLR 20/20 A3004 RMK AO2 T01960196

Hora: 23:19 (04:19 UTC)


TAF: manca

Observacions i pronòstics meteorològics de més de 4000 aeroports (METAR i TAF).

Les estacions disponibles són els punts grocs i vermells al mapa.

Posi el ratolí al punt desitjat per veure el nom de l'estació.

Feu clic per veure les observacions i els pronòstics meteorològics.

Per canviar el mapa: feu clic els botons verds amb una creu de color negre per apropar; al botó verd amb un guió per allunyar la imatge; o en les fletxes verdes per a mapes adjacents.


METAR-TAF: